This is the latest recevied weather packets stored in our database for station/object KC8BSD. If no packets are shown the sender has not sent any weather packets the latest 1 day(s).
| Time | Temp. | Humidity | Pressure | Rain* | Wind** | Luminosity | Snow |
|---|---|---|---|---|---|---|---|
| 1778021727 | 12.22° C | 51% | 1008.9 hPa | 0 mm | 1.34 m/s, 27° | 54 W/m² | - |
| 1778021423 | 12.22° C | 51% | 1008.9 hPa | 0 mm | 0.89 m/s, 22° | 69 W/m² | - |
| 1778021120 | 12.22° C | 51% | 1008.9 hPa | 0 mm | 0.45 m/s, 22° | 62 W/m² | - |
| 1778020817 | 12.22° C | 52% | 1009 hPa | 0 mm | 0 m/s | 67 W/m² | - |
| 1778020514 | 12.22° C | 50% | 1009 hPa | 0 mm | 0.45 m/s, 253° | 81 W/m² | - |
| 1778020216 | 12.22° C | 53% | 1009 hPa | 0 mm | 0 m/s | 83 W/m² | - |
| 1778019907 | 12.22° C | 51% | 1009 hPa | 0 mm | 0.45 m/s, 295° | 83 W/m² | - |
| 1778019603 | 12.22° C | 52% | 1009.3 hPa | 0 mm | 0.45 m/s, 347° | 88 W/m² | - |
| 1778019300 | 12.22° C | 51% | 1009.2 hPa | 0 mm | 0.45 m/s, 266° | 89 W/m² | - |
| 1778018997 | 12.22° C | 51% | 1009.2 hPa | 0 mm | 1.79 m/s, 327° | 88 W/m² | - |
| 1778018694 | 12.22° C | 50% | 1008.9 hPa | 0 mm | 0.89 m/s, 332° | 99 W/m² | - |
| 1778018391 | 12.22° C | 51% | 1008.8 hPa | 0 mm | 0.89 m/s, 34° | 113 W/m² | - |
| 1778018089 | 12.78° C | 51% | 1008.9 hPa | 0 mm | 0.45 m/s, 276° | 103 W/m² | - |
| 1778017787 | 12.22° C | 54% | 1008.8 hPa | 0 mm | 0 m/s | 111 W/m² | - |
| 1778017485 | 12.22° C | 53% | 1008.9 hPa | 0 mm | 0.89 m/s, 77° | 90 W/m² | - |
| 1778017182 | 12.22° C | 54% | 1008.8 hPa | 0 mm | 1.34 m/s, 67° | 92 W/m² | - |
| 1778016879 | 12.22° C | 53% | 1009.2 hPa | 0 mm | 0.45 m/s, 324° | 79 W/m² | - |
| 1778016575 | 12.22° C | 51% | 1009.2 hPa | 0 mm | 2.24 m/s, 38° | 80 W/m² | - |
| 1778016272 | 12.22° C | 52% | 1008.9 hPa | 0 mm | 0.45 m/s, 303° | 75 W/m² | - |
| 1778015968 | 12.78° C | 56% | 1009 hPa | 0 mm | 1.34 m/s, 355° | 77 W/m² | - |
| 1778015666 | 12.78° C | 58% | 1008.8 hPa | 0 mm | 0.89 m/s, 63° | 85 W/m² | - |
| 1778015362 | 12.78° C | 60% | 1008.8 hPa | 0 mm | 0.45 m/s, 330° | 100 W/m² | - |
| 1778015063 | 12.78° C | 59% | 1008.8 hPa | 0 mm | 1.34 m/s, 54° | 112 W/m² | - |
| 1778014756 | 12.78° C | 60% | 1009 hPa | 0 mm | 2.68 m/s, 53° | 98 W/m² | - |
| 1778014455 | 12.78° C | 60% | 1009.3 hPa | 0 mm | 1.34 m/s, 62° | 121 W/m² | - |
* Rain latest hour (hover to see other rain measurements)
** Current wind speed in m/s (hover to see current wind gust speed)